Change the Weather History Date:

Saturday, October 20, 2012

  Actual Average Record
Temperature  
Mean Temperature 54 °F 47 °F  
Max Temperature 75 °F 59 °F 92 °F (1947)
Min Temperature 32 °F 35 °F 19 °F (2011)
Degree Days  
Heating Degree Days 11 18  
Month to date heating degree days 306 282  
Since 1 July heating degree days 414 453  
Cooling Degree Days 0 0  
Month to date cooling degree days 0 2  
Year to date cooling degree days 1112 865  
Growing Degree Days 2 (Base 50)    
Moisture  
Dew Point 32 °F    
Average Humidity 56    
Maximum Humidity 92    
Minimum Humidity 20    
Precipitation  
Precipitation 0.00 in 0.05 in 2.20 in (1906)
Month to date precipitation 0.20 1.21  
Year to date precipitation 10.31 18.26  
Snow  
Snow 0.00 in 0.10 in 0.60 in (1898)
Month to date snowfall 0.0 0.4  
Since 1 July snowfall 0.0 0.4  
Snow Depth 0.00 in    
Sea Level Pressure  
Sea Level Pressure 29.60 in    
Wind  
Wind Speed 10 mph (SE)    
Max Wind Speed 20 mph    
Max Gust Speed 24 mph    
Visibility 10 miles    
Events      
T = Trace of Precipitation, MM = Missing Value Source: NWS Daily Summary

Daily Weather History Graph

Daily Weather History Graph

Search for Another Location

Airport or City:

Trip Planner

Search our weather history database for the weather conditions in past years. The results will help you decide how hot, cold, wet, or windy it might be!

Date:

Astronomy

Oct. 20, 2012 Rise Set
Actual Time 8:03 AM CDT 6:47 PM CDT
Civil Twilight 7:33 AM CDT 7:17 PM CDT
Nautical Twilight 6:59 AM CDT 7:50 PM CDT
Astronomical Twilight 6:26 AM CDT 8:24 PM CDT
Moon 1:47 PM CDT (10/20) 11:29 PM CDT (10/20)
Length of Visible Light 11h 43m
Length of Day
10h 44m
Waxing Crescent, 34% of the Moon is Illuminated
Oct 20
Waxing Crescent
Oct 21
First Quarter
Oct 29
Full
Nov 6
Last Quarter
Nov 13
New

Hourly Weather History & Observations

Time (CDT) Temp. Windchill Dew Point Humidity Pressure Visibility Wind Dir Wind Speed Gust Speed Precip Events Conditions
12:53 AM 36.0 °F 31.1 °F 30.9 °F 82% 29.73 in 10.0 mi ESE 5.8 mph - N/A   Clear
1:53 AM 37.0 °F 31.6 °F 32.0 °F 82% 29.73 in 10.0 mi SE 6.9 mph - N/A   Clear
2:53 AM 37.0 °F 31.6 °F 32.0 °F 82% 29.70 in 10.0 mi ESE 6.9 mph - N/A   Clear
3:53 AM 37.0 °F 31.0 °F 33.1 °F 86% 29.68 in 10.0 mi ESE 8.1 mph - N/A   Clear
4:53 AM 36.0 °F 30.3 °F 33.1 °F 89% 29.66 in 10.0 mi SE 6.9 mph - N/A   Clear
5:53 AM 36.0 °F 29.6 °F 32.0 °F 86% 29.66 in 10.0 mi SE 8.1 mph - N/A   Clear
6:53 AM 34.0 °F 26.6 °F 30.9 °F 89% 29.67 in 10.0 mi SE 9.2 mph - N/A   Clear
7:53 AM 32.0 °F 25.6 °F 30.0 °F 92% 29.68 in 10.0 mi SE 6.9 mph - N/A   Clear
8:53 AM 37.0 °F 31.6 °F 33.1 °F 86% 29.67 in 10.0 mi SSE 6.9 mph - N/A   Clear
9:53 AM 41.0 °F 35.8 °F 33.1 °F 73% 29.66 in 10.0 mi SSE 8.1 mph - N/A   Clear
10:53 AM 46.0 °F 44.8 °F 32.0 °F 58% 29.65 in 10.0 mi South 3.5 mph - N/A   Clear
11:53 AM 54.0 °F - 32.0 °F 43% 29.64 in 10.0 mi Variable 3.5 mph - N/A   Clear
12:53 PM 62.1 °F - 30.9 °F 31% 29.59 in 10.0 mi SE 5.8 mph - N/A   Clear
1:53 PM 68.0 °F - 32.0 °F 26% 29.55 in 10.0 mi SE 9.2 mph - N/A   Clear
2:53 PM 72.0 °F - 30.0 °F 21% 29.52 in 10.0 mi ESE 11.5 mph - N/A   Clear
3:53 PM 73.9 °F - 30.0 °F 20% 29.52 in 10.0 mi ESE 11.5 mph - N/A   Clear
4:53 PM 73.9 °F - 30.9 °F 21% 29.50 in 10.0 mi ESE 11.5 mph - N/A   Clear
5:53 PM 70.0 °F - 30.0 °F 23% 29.50 in 10.0 mi ESE 9.2 mph - N/A   Clear
6:53 PM 64.9 °F - 32.0 °F 29% 29.50 in 10.0 mi ESE 10.4 mph - N/A   Clear
7:53 PM 63.0 °F - 34.0 °F 34% 29.52 in 10.0 mi SE 15.0 mph - N/A   Clear
8:53 PM 60.1 °F - 36.0 °F 41% 29.51 in 10.0 mi ESE 17.3 mph - N/A   Clear
9:53 PM 59.0 °F - 36.0 °F 42% 29.51 in 10.0 mi ESE 16.1 mph - N/A   Clear
11:53 PM 55.9 °F - 34.0 °F 44% 29.49 in 10.0 mi ESE 12.7 mph - N/A   Clear